When you browse on this site, cookies collect data to enhance your experience and personalize the content and advertising you see.
Visit our Privacy Policy to learn more. By continuing to use the site, you agree to this use of cookies and data.
  • In Österreich
  • Länderverzeichnis
  • Für 7 Tage
  • Wassertemperatur
  • Satellitenkarten
  • Wetterkarte
  • News
  • Widgets
  • user-avatar
    Anmelden

    Stündliche Wetter Cairns

    Heute, 10 Dezember, Montag

    Zeit Temperatur Niederschläge Wind Luftdruck Luftfeuchtigkeit
    00:00 +27°C° 5.8 mm 9 m/S 752 mmHg 95%
    01:00 +27°C° 5.8 mm 9 m/S 752 mmHg 95%
    02:00 +27°C° 6.4 mm 9 m/S 751 mmHg 95%
    03:00 +27°C° 6.4 mm 9 m/S 751 mmHg 95%
    04:00 +28°C° 0 mm 10 m/S 751 mmHg 94%
    05:00 +28°C° 7.6 mm 9 m/S 751 mmHg 94%
    06:00 +27°C° 7.6 mm 8 m/S 752 mmHg 95%
    07:00 +27°C° 7.6 mm 7 m/S 752 mmHg 96%
    08:00 +28°C° 3.5 mm 6 m/S 753 mmHg 95%
    09:00 +28°C° 3.5 mm 5 m/S 753 mmHg 94%
    10:00 +28°C° 3.5 mm 4 m/S 754 mmHg 93%
    11:00 +29°C° 1.6 mm 4 m/S 754 mmHg 90%
    12:00 +30°C° 1.6 mm 4 m/S 753 mmHg 88%
    13:00 +30°C° 1.6 mm 4 m/S 753 mmHg 86%
    14:00 +30°C° 1.1 mm 4 m/S 753 mmHg 87%
    15:00 +30°C° 1.1 mm 4 m/S 753 mmHg 88%
    16:00 +30°C° 1.1 mm 4 m/S 753 mmHg 88%
    17:00 +29°C° 1.1 mm 4 m/S 753 mmHg 91%
    18:00 +28°C° 1.1 mm 3 m/S 754 mmHg 93%
    19:00 +27°C° 1.1 mm 3 m/S 754 mmHg 95%
    20:00 +27°C° 0.6 mm 3 m/S 755 mmHg 95%
    21:00 +27°C° 0.6 mm 3 m/S 755 mmHg 96%
    22:00 +27°C° 0.6 mm 2 m/S 756 mmHg 96%
    23:00 +27°C° 0.8 mm 2 m/S 755 mmHg 97%

    Morgen, 11 Dezember, Dienstag

    Zeit Temperatur Niederschläge Wind Luftdruck Luftfeuchtigkeit
    00:00 +27°C° 0.8 mm 2 m/S 755 mmHg 97%
    01:00 +27°C° 0.8 mm 1 m/S 755 mmHg 97%
    02:00 +27°C° 0.3 mm 1 m/S 755 mmHg 97%
    03:00 +27°C° 0.3 mm 2 m/S 755 mmHg 97%
    04:00 +27°C° 0.3 mm 2 m/S 755 mmHg 98%
    05:00 +27°C° 0.3 mm 2 m/S 755 mmHg 96%
    06:00 +27°C° 0.3 mm 2 m/S 755 mmHg 95%
    07:00 +28°C° 0.3 mm 2 m/S 756 mmHg 94%
    08:00 +29°C° 0.2 mm 2 m/S 756 mmHg 88%
    09:00 +30°C° 0.2 mm 2 m/S 756 mmHg 82%
    10:00 +32°C° 0.2 mm 2 m/S 757 mmHg 76%
    11:00 +32°C° 0.4 mm 2 m/S 756 mmHg 73%
    12:00 +34°C° 0.4 mm 3 m/S 756 mmHg 71%
    13:00 +35°C° 0.4 mm 3 m/S 755 mmHg 69%
    14:00 +34°C° 0.1 mm 3 m/S 755 mmHg 70%
    15:00 +34°C° 0.1 mm 3 m/S 755 mmHg 72%
    16:00 +33°C° 0.1 mm 3 m/S 754 mmHg 73%
    17:00 +31°C° 0 mm 2 m/S 754 mmHg 79%
    18:00 +30°C° 0 mm 2 m/S 755 mmHg 85%
    19:00 +28°C° 0 mm 1 m/S 755 mmHg 91%
    20:00 +28°C° 0 mm 1 m/S 756 mmHg 93%
    21:00 +28°C° 0 mm 1 m/S 756 mmHg 94%
    22:00 +26°C° 0 mm 0 m/S 757 mmHg 95%
    23:00 +25°C° 0 mm 0 m/S 756 mmHg 96%

    übermorgen, 12 Dezember, Mittwoch

    Zeit Temperatur Niederschläge Wind Luftdruck Luftfeuchtigkeit
    00:00 +27°C° 0 mm 1 m/S 756 mmHg 96%
    01:00 +27°C° 0 mm 1 m/S 755 mmHg 97%
    02:00 +27°C° 0.1 mm 1 m/S 755 mmHg 97%
    03:00 +27°C° 0.1 mm 1 m/S 755 mmHg 97%
    04:00 +27°C° 0.1 mm 1 m/S 755 mmHg 97%
    05:00 +28°C° 0.1 mm 1 m/S 755 mmHg 95%
    06:00 +28°C° 0.1 mm 1 m/S 756 mmHg 93%
    07:00 +29°C° 0.1 mm 1 m/S 757 mmHg 91%
    08:00 +30°C° 0 mm 1 m/S 757 mmHg 84%
    09:00 +32°C° 0 mm 1 m/S 757 mmHg 77%
    10:00 +34°C° 0 mm 2 m/S 757 mmHg 69%
    11:00 +35°C° 0.1 mm 2 m/S 756 mmHg 70%
    12:00 +35°C° 0.1 mm 2 m/S 755 mmHg 70%
    13:00 +35°C° 0.1 mm 3 m/S 755 mmHg 71%
    14:00 +34°C° 0.2 mm 3 m/S 755 mmHg 72%
    15:00 +34°C° 0.2 mm 3 m/S 754 mmHg 74%
    16:00 +34°C° 0.2 mm 2 m/S 754 mmHg 75%
    17:00 +32°C° 0.1 mm 2 m/S 754 mmHg 81%
    18:00 +30°C° 0.1 mm 2 m/S 755 mmHg 86%
    19:00 +29°C° 0.1 mm 2 m/S 755 mmHg 91%
    20:00 +29°C° 0.2 mm 2 m/S 755 mmHg 93%
    21:00 +28°C° 0.2 mm 1 m/S 756 mmHg 94%
    22:00 +28°C° 0.2 mm 1 m/S 756 mmHg 96%
    23:00 +28°C° 0 mm 1 m/S 756 mmHg 96%

    13 Dezember, Donnerstag

    Zeit Temperatur Niederschläge Wind Luftdruck Luftfeuchtigkeit
    00:00 +28°C° 0 mm 1 m/S 755 mmHg 96%
    01:00 +26°C° 0 mm 0 m/S 755 mmHg 96%
    02:00 +26°C° 0 mm 0 m/S 755 mmHg 96%
    03:00 +26°C° 0 mm 0 m/S 755 mmHg 97%
    04:00 +25°C° 0 mm 0 m/S 754 mmHg 97%
    05:00 +26°C° 0 mm 0 m/S 755 mmHg 95%
    06:00 +26°C° 0 mm 0 m/S 755 mmHg 94%
    07:00 +29°C° 0 mm 1 m/S 756 mmHg 92%
    08:00 +30°C° 0.4 mm 1 m/S 756 mmHg 87%
    09:00 +31°C° 0.4 mm 2 m/S 756 mmHg 82%
    10:00 +32°C° 0.4 mm 2 m/S 756 mmHg 78%
    11:00 +34°C° 0.5 mm 2 m/S 755 mmHg 77%
    12:00 +34°C° 0.5 mm 3 m/S 755 mmHg 76%
    13:00 +35°C° 0.5 mm 3 m/S 754 mmHg 74%
    14:00 +34°C° 0.8 mm 3 m/S 754 mmHg 78%
    15:00 +33°C° 0.8 mm 3 m/S 754 mmHg 81%
    16:00 +33°C° 0.8 mm 3 m/S 753 mmHg 84%
    17:00 +31°C° 1.6 mm 3 m/S 754 mmHg 87%
    18:00 +30°C° 1.6 mm 2 m/S 754 mmHg 90%
    19:00 +29°C° 1.6 mm 2 m/S 754 mmHg 93%
    20:00 +28°C° 0.1 mm 2 m/S 754 mmHg 93%
    21:00 +28°C° 0.1 mm 3 m/S 755 mmHg 94%
    22:00 +28°C° 0.1 mm 3 m/S 755 mmHg 95%
    23:00 +28°C° 1.2 mm 3 m/S 754 mmHg 95%

    14 Dezember, Freitag

    Zeit Temperatur Niederschläge Wind Luftdruck Luftfeuchtigkeit
    00:00 +28°C° 1.2 mm 3 m/S 754 mmHg 95%
    01:00 +28°C° 1.2 mm 3 m/S 753 mmHg 95%
    02:00 +28°C° 0.1 mm 2 m/S 753 mmHg 95%
    03:00 +28°C° 0.1 mm 2 m/S 753 mmHg 95%
    04:00 +28°C° 0.1 mm 2 m/S 753 mmHg 95%
    05:00 +28°C° 0.2 mm 1 m/S 753 mmHg 93%
    06:00 +28°C° 0.2 mm 1 m/S 754 mmHg 91%
    07:00 +29°C° 0.2 mm 1 m/S 754 mmHg 89%
    08:00 +30°C° 1.4 mm 2 m/S 754 mmHg 85%
    09:00 +31°C° 1.4 mm 2 m/S 754 mmHg 81%
    10:00 +33°C° 1.4 mm 3 m/S 754 mmHg 77%
    11:00 +34°C° 1 mm 3 m/S 754 mmHg 75%
    12:00 +34°C° 1 mm 3 m/S 753 mmHg 72%
    13:00 +35°C° 1 mm 4 m/S 752 mmHg 70%
    14:00 +34°C° 0.9 mm 4 m/S 752 mmHg 73%
    15:00 +33°C° 0.9 mm 4 m/S 752 mmHg 77%
    16:00 +33°C° 0.9 mm 3 m/S 751 mmHg 80%
    17:00 +31°C° 1.6 mm 3 m/S 752 mmHg 84%
    18:00 +30°C° 1.6 mm 3 m/S 753 mmHg 88%
    19:00 +29°C° 1.6 mm 3 m/S 753 mmHg 92%
    20:00 +28°C° 2.1 mm 3 m/S 753 mmHg 93%
    21:00 +28°C° 2.1 mm 2 m/S 754 mmHg 94%
    22:00 +28°C° 2.1 mm 2 m/S 754 mmHg 95%
    23:00 +28°C° 1.3 mm 2 m/S 754 mmHg 96%

    15 Dezember, Samstag

    Zeit Temperatur Niederschläge Wind Luftdruck Luftfeuchtigkeit
    00:00 +28°C° 1.3 mm 1 m/S 753 mmHg 96%
    01:00 +27°C° 1.3 mm 1 m/S 753 mmHg 96%
    02:00 +27°C° 0.3 mm 1 m/S 753 mmHg 96%
    03:00 +27°C° 0.3 mm 1 m/S 752 mmHg 96%
    04:00 +27°C° 0.3 mm 2 m/S 752 mmHg 97%
    05:00 +27°C° 0.7 mm 2 m/S 753 mmHg 96%
    06:00 +28°C° 0.7 mm 2 m/S 753 mmHg 96%
    07:00 +28°C° 0.7 mm 3 m/S 754 mmHg 95%
    08:00 +28°C° 2.1 mm 3 m/S 754 mmHg 95%
    09:00 +28°C° 2.1 mm 4 m/S 754 mmHg 96%
    10:00 +28°C° 2.1 mm 4 m/S 754 mmHg 96%
    11:00 +28°C° 2.5 mm 5 m/S 753 mmHg 96%
    12:00 +28°C° 2.5 mm 6 m/S 753 mmHg 95%
    13:00 +28°C° 2.5 mm 7 m/S 752 mmHg 95%
    14:00 +28°C° 1.4 mm 7 m/S 752 mmHg 95%
    15:00 +28°C° 1.4 mm 7 m/S 751 mmHg 95%
    16:00 +28°C° 1.4 mm 8 m/S 750 mmHg 95%
    17:00 +28°C° 1.1 mm 8 m/S 750 mmHg 95%
    18:00 +28°C° 1.1 mm 8 m/S 751 mmHg 95%
    19:00 +28°C° 1.1 mm 9 m/S 751 mmHg 95%
    20:00 +28°C° 1.3 mm 9 m/S 751 mmHg 95%
    21:00 +28°C° 1.3 mm 9 m/S 751 mmHg 95%
    22:00 +28°C° 1.3 mm 9 m/S 751 mmHg 94%
    23:00 +28°C° 0.8 mm 8 m/S 750 mmHg 94%
    Mehr zeigen